Location: Bodham
(52.9000°N, 1.1667°E)
Time: 14:17:19
(UTC+00:00)

Cosmos 2112 Rocket - Pass Details

Date: 22 October 2025
Orbit: 753 x 782 km, 74.0° (Epoch: 13 November)

Event Time Altitude Azimuth Distance (km) Brightness Sun altitude
Rises 20:18:04 0° 232° (SW) 3,256 7.6 -32.3°
Reaches altitude 10° 20:20:39 10° 241° (WSW) 2,328 6.8 -32.6°
Maximum altitude 20:25:30 36° 308° (NW) 1,216 5.4 -33.3°
Enters shadow 20:27:43 25° 353° (N) 1,513 5.8 -33.6°
